Kankakee, IL

6:16 PM CST on December 15, 2019 (GMT -0600)
Greater Kankakee

Weather History for KIKK - October, 2019

Change the Weather History Date:

Friday, October 18, 2019

  Actual Average Record
Temperature  
Mean Temperature 47 °F -  
Max Temperature 61 °F 62 °F 82 °F (2007)
Min Temperature 33 °F 39 °F 28 °F (1976)
Degree Days  
Heating Degree Days 18    
Moisture  
Dew Point 37 °F    
Average Humidity 74    
Maximum Humidity 98    
Minimum Humidity 40    
Precipitation  
Precipitation 0.00 in - - ()
Sea Level Pressure  
Sea Level Pressure 30.03 in    
Wind  
Wind Speed 4 mph (SE)    
Max Wind Speed 12 mph    
Max Gust Speed 16 mph    
Visibility 10 miles    
Events      
Averages and records for this station are not official NWS values.
T = Trace of Precipitation, MM = Missing Value Source: NWS Daily Summary

Daily Weather History Graph

Daily Weather History Graph

Search for Another Location

Airport or City:

Astronomy

Oct. 18, 2019 Rise Set
Actual Time 7:06 AM CDT 6:06 PM CDT
Civil Twilight 6:38 AM CDT 6:34 PM CDT
Nautical Twilight 6:06 AM CDT 7:06 PM CDT
Astronomical Twilight 5:34 AM CDT 7:38 PM CDT
Moon 9:20 PM CDT (10/18) 11:40 AM CDT (10/18)
Length of Visible Light 11h 56m
Length of Day
11h 00m
Waning Gibbous, 78% of the Moon is Illuminated
Oct 18
Waning Gibbous
Oct 21
Last Quarter
Oct 27
New
Nov 4
First Quarter
Nov 12
Full

Hourly Weather History & Observations

Time (CDT) Temp. Windchill Dew Point Humidity Pressure Visibility Wind Dir Wind Speed Gust Speed Precip Events Conditions
12:15 AM 37.8 °F 34.2 °F 34.7 °F 89% 30.06 in 10.0 mi ESE 4.6 mph - N/A   Clear
12:35 AM 37.9 °F 35.5 °F 34.5 °F 87% 30.05 in 10.0 mi SE 3.5 mph - N/A   Clear
12:55 AM 38.8 °F - 34.7 °F 85% 30.06 in 10.0 mi Calm Calm - N/A   Clear
1:15 AM 37.9 °F - 34.7 °F 88% 30.07 in 10.0 mi Calm Calm - N/A   Clear
1:35 AM 38.5 °F - 34.9 °F 87% 30.07 in 10.0 mi Calm Calm - N/A   Clear
1:55 AM 37.6 °F - 35.2 °F 91% 30.07 in 10.0 mi Calm Calm - N/A   Clear
2:35 AM 36.5 °F - 35.2 °F 95% 30.08 in 10.0 mi Calm Calm - N/A   Clear
2:55 AM 35.4 °F - 34.3 °F 96% 30.08 in 10.0 mi Calm Calm - N/A   Clear
3:15 AM 36.0 °F - 35.1 °F 97% 30.07 in 10.0 mi Calm Calm - N/A   Clear
3:35 AM 34.3 °F - 33.8 °F 98% 30.07 in 10.0 mi Calm Calm - N/A   Clear
3:55 AM 35.2 °F - 34.5 °F 97% 30.07 in 10.0 mi Calm Calm - N/A   Clear
4:15 AM 34.7 °F - 34.0 °F 97% 30.07 in 10.0 mi Calm Calm - N/A   Clear
4:35 AM 35.2 °F - 34.7 °F 98% 30.08 in 10.0 mi Calm Calm - N/A   Clear
4:55 AM 36.0 °F - 35.2 °F 97% 30.08 in 10.0 mi Calm Calm - N/A   Clear
5:15 AM 35.1 °F - 34.5 °F 98% 30.09 in 10.0 mi Calm Calm - N/A   Clear
5:35 AM 34.9 °F - 34.3 °F 98% 30.09 in 10.0 mi Calm Calm - N/A   Clear
5:55 AM 34.9 °F - 34.3 °F 98% 30.10 in 10.0 mi Calm Calm - N/A   Clear
6:15 AM 35.1 °F - 34.3 °F 97% 30.10 in 10.0 mi Calm Calm - N/A   Clear
6:35 AM 34.9 °F - 34.2 °F 97% 30.10 in 10.0 mi Calm Calm - N/A   Clear
6:55 AM 34.9 °F - 34.0 °F 97% 30.10 in 10.0 mi Calm Calm - N/A   Clear
7:15 AM 33.1 °F 30.0 °F 32.4 °F 97% 30.09 in 10.0 mi ESE 3.5 mph - N/A   Clear
7:35 AM 33.8 °F 30.8 °F 33.1 °F 97% 30.09 in 10.0 mi SE 3.5 mph - N/A   Clear
7:55 AM 35.1 °F - 34.2 °F 97% 30.09 in 10.0 mi Calm Calm - N/A   Clear
8:15 AM 37.4 °F - 36.1 °F 95% 30.10 in 10.0 mi Calm Calm - N/A   Clear
8:35 AM 39.7 °F 37.6 °F 37.8 °F 93% 30.10 in 10.0 mi SE 3.5 mph - N/A   Clear
8:55 AM 41.5 °F 37.8 °F 39.0 °F 91% 30.09 in 10.0 mi ESE 5.8 mph - N/A   Clear
9:15 AM 43.7 °F 39.7 °F 39.4 °F 85% 30.09 in 10.0 mi ESE 6.9 mph - N/A   Clear
9:35 AM 45.7 °F 42.7 °F 40.1 °F 81% 30.10 in 10.0 mi SSE 5.8 mph - N/A   Clear
9:55 AM 48.2 °F - 40.3 °F 74% 30.09 in 10.0 mi SSE 6.9 mph - N/A   Clear
10:15 AM 49.8 °F - 40.1 °F 69% 30.09 in 10.0 mi SSE 8.1 mph - N/A   Clear
10:35 AM 51.3 °F - 39.9 °F 65% 30.09 in 10.0 mi ENE 9.2 mph - N/A   Clear
10:55 AM 52.5 °F - 39.7 °F 62% 30.09 in 10.0 mi South 6.9 mph - N/A   Clear
11:15 AM 53.8 °F - 40.1 °F 60% 30.08 in 10.0 mi SSE 9.2 mph - N/A   Clear
11:35 AM 55.2 °F - 40.8 °F 58% 30.08 in 10.0 mi SE 9.2 mph - N/A   Clear
11:55 AM 56.1 °F - 39.9 °F 55% 30.07 in 10.0 mi SSE 8.1 mph - N/A   Clear
12:15 PM 57.0 °F - 39.9 °F 53% 30.07 in 10.0 mi South 10.4 mph - N/A   Clear
12:35 PM 57.6 °F - 39.2 °F 50% 30.06 in 10.0 mi SSE 10.4 mph - N/A   Clear
12:55 PM 58.1 °F - 38.8 °F 49% 30.05 in 10.0 mi SSE 11.5 mph 16.1 mph N/A   Clear
1:15 PM 58.6 °F - 38.5 °F 47% 30.04 in 10.0 mi South 6.9 mph - N/A   Clear
1:35 PM 59.0 °F - 38.7 °F 47% 30.04 in 10.0 mi South 4.6 mph 9.2 mph N/A   Clear
1:55 PM 60.1 °F - 39.0 °F 46% 30.02 in 10.0 mi SE 9.2 mph - N/A   Clear
2:35 PM 60.1 °F - 38.1 °F 44% 30.01 in 10.0 mi South 8.1 mph - N/A   Clear
2:55 PM 60.8 °F - 38.3 °F 43% 30.00 in 10.0 mi South 9.2 mph - N/A   Clear
3:15 PM 61.0 °F - 37.8 °F 42% 29.99 in 10.0 mi SSE 10.4 mph - N/A   Clear
3:35 PM 61.7 °F - 38.5 °F 42% 29.99 in 10.0 mi SSE 9.2 mph - N/A   Clear
3:55 PM 61.5 °F - 36.9 °F 40% 29.98 in 10.0 mi SSE 10.4 mph - N/A   Clear
4:15 PM 61.0 °F - 37.4 °F 42% 29.97 in 10.0 mi SSE 8.1 mph - N/A   Clear
4:35 PM 60.8 °F - 37.6 °F 42% 29.96 in 10.0 mi South 9.2 mph - N/A   Clear
4:55 PM 60.4 °F - 38.1 °F 44% 29.96 in 10.0 mi SSE 6.9 mph - N/A   Clear
5:15 PM 59.9 °F - 38.7 °F 45% 29.95 in 10.0 mi SSE 9.2 mph - N/A   Clear
5:35 PM 58.6 °F - 38.8 °F 48% 29.95 in 10.0 mi SSE 8.1 mph - N/A   Clear
5:55 PM 56.7 °F - 38.8 °F 51% 29.95 in 10.0 mi SSE 6.9 mph - N/A   Clear
6:15 PM 55.4 °F - 39.2 °F 54% 29.95 in 10.0 mi SSE 4.6 mph - N/A   Clear
6:35 PM 51.3 °F - 39.0 °F 63% 29.94 in 10.0 mi SE 4.6 mph - N/A   Clear
6:55 PM 49.6 °F - 39.2 °F 67% 29.95 in 10.0 mi SE 4.6 mph - N/A   Clear
7:15 PM 49.3 °F - 38.7 °F 67% 29.95 in 10.0 mi SE 4.6 mph - N/A   Clear
7:35 PM 46.8 °F - 38.7 °F 73% 29.95 in 10.0 mi SE 4.6 mph - N/A   Clear
7:55 PM 47.3 °F - 39.0 °F 73% 29.95 in 10.0 mi SE 5.8 mph - N/A   Clear
8:15 PM 46.6 °F - 38.8 °F 74% 29.95 in 10.0 mi SE 5.8 mph - N/A   Clear
8:35 PM 46.6 °F - 38.7 °F 74% 29.95 in 10.0 mi SE 4.6 mph - N/A   Clear
8:55 PM 46.6 °F - 38.5 °F 73% 29.95 in 10.0 mi SE 5.8 mph - N/A   Clear
9:15 PM 45.7 °F 43.4 °F 38.5 °F 76% 29.95 in 10.0 mi SSE 4.6 mph - N/A   Clear
9:35 PM 45.7 °F 43.4 °F 38.3 °F 75% 29.95 in 10.0 mi SE 4.6 mph - N/A   Clear
9:55 PM 43.7 °F 41.1 °F 37.6 °F 79% 29.94 in 10.0 mi SE 4.6 mph - N/A   Clear
10:15 PM 43.9 °F 41.3 °F 37.6 °F 78% 29.94 in 10.0 mi SSE 4.6 mph - N/A   Clear
10:35 PM 44.1 °F 40.8 °F 37.6 °F 78% 29.94 in 10.0 mi SSE 5.8 mph - N/A   Clear
10:55 PM 42.8 °F 39.3 °F 37.4 °F 81% 29.94 in 10.0 mi SSE 5.8 mph - N/A   Clear
11:15 PM 42.4 °F 39.6 °F 37.4 °F 82% 29.94 in 10.0 mi SSE 4.6 mph - N/A   Clear
11:35 PM 42.4 °F 39.6 °F 36.9 °F 81% 29.93 in 10.0 mi SSE 4.6 mph - N/A   Clear
11:55 PM 41.9 °F 39.0 °F 37.0 °F 83% 29.93 in 10.0 mi SE 4.6 mph - N/A   Clear